Location: Newark
(48.6676°N, 6.1917°E)
Time: 02:16:39
(UTC+00:00)

N. Korean satellite - Pass Details

Date: 10 December 2019
Orbit: 454 x 507 km, 97.2° (Epoch: 23 January)

Event Time Altitude Azimuth Distance (km) Brightness Sun altitude
Rises 17:11:34 0° 191° (S) 2,601 10.7 -14.4°
Reaches altitude 10° 17:13:51 10° 203° (SSW) 1,720 9.9 -14.8°
Maximum altitude 17:17:07 29° 265° (W) 953 8.8 -15.3°
Drops below altitude 10° 17:20:24 10° 326° (NNW) 1,721 9.5 -15.8°
Sets 17:22:41 0° 338° (NNW) 2,604 10.3 -16.2°
